SCP
0 0 0 0 0 0 0 0 0 0 0 0 0 0 0 0 0 0 0 0 0 0 0 0 0 0 0 0 0 0 0 0 0 0 0 0 0 0 0 0 0 0 0
0 0 0 0 0 0 0 0 0 0 0 0 0 0 0 0 0 0 0 0 0 0 0 0 0 0 0 0 0 0 0 0 0 0 0 0 0 0 0 0 0 0 0
0 0 0 0 0 0 0 0 0 0 0 0 0 0 0 0 0 0 0 0 0 0 0 0 0 0 0 0 0 0 0 0 0 0 0 0 0 0 0 0 0 0 0
0 0 0 0 0 0 0 0 0 0 0 0 0 0 0 0 0 0 0 0 0 0 0 0 0 0 0 0 0 0 0 0 0 0 0 0 0 0 0 0 0 0 0
0 0 0 0 0 0 0 0 0 0 0 0 0 0 0 0 0 0 0 0 0 0 0 0 0 0 0 0 0 0 0 0 0 0 0 0 0 0 0 0 0 0 0
0 0 0 0 0 0 0 0 0 0 0 -0 0 0 0 0 0 0 0 0 0 0 0 0 0 0 0 0 0 0 0 0 0 0 0 0 0 0 0 0 0 0 0
0 0 0 0 0 0 0 0 0 0 0 0 0 0 0 0 0 0 0 0 0 0 0 0 0 0 0 0 0 0 0 0 0 0 0 0 0 0 0 0 0 0 0
0 0 0 0 0 0 0 0 0 0 0 0 0 0 0 0 0 0 0 0 0 0 0 0 0 0 0 0 0 0 0 0 0 0 0 0 0 0 0 0 0 0 0
0 0 0 0 0 0 0 0 0 0 0 0 0 0 0 0 0 0 0 0 0 0 0 0 0 0 0 0 0 0 0 0 0 0 0 0 0 0 0 0 0 0 0
0 0 0 0 0 0 0 0 0 0 0 0 0 0 0 0 0 0 0 0 0 0 0 0 0 0 0 0 0 0 0 0 0 0 0 0 0 0 0 0 0 0 0
0 0 0 0 0 0 0 0 0 0 0 0 0 0 0 0 0 0 0 0 0 0 0 0 0 0 0 0 0 0 0 0 0 0 0 0 0 0 0 0 0 0 0
0 0 0 0 0 0 0 0 0 0 0 0 0 0 0 0 0 0 0 0 0 0 0 0 0 0 0 0 0 0 0 0 0 0 0 0 0 0 0 0 0 0 0
0 0 0 0 0 0 0 0 0 0 0 0 0 0 0 0 0 0 0 0 0 0 0 0 0 0 0 0 0 0 0 0 0 0 0 0 0 0 0 0 0 0 0
0 0 0 0 0 0 0 0 0 0 0 0 0 0 0 0 0 0 0 0 0 0 0 0 0 0 0 0 0 0 0 0 0 0 0 0 0 0 0 0 0 0 0
0 0 0 0 0 0 0 0 0 0 0 0 0 0 0 0 0 0 0 0 0 0 0 0 0 0 0 0 0 0 0 0 0 0 0 0 0 0 0 0 0 0 0
0 0 0 0 0 0 0 0 0 0 0 0 0 0 0 0 0 0 0 0 0 0 0 0 0 0 0 0 0 0 0 0 0 0 0 0 0 0 0 0 0 0 0
0 0 0 0 0 0 0 0 0 0 0 0 0 0 0 0 0 0 0 0 0 0 0 0 0 0 0 0 0 0 0 0 0 0 0 0 0 0 0 0 0 0 0
0 0 0 0 0 0 0 0 0 0 0 0 0 0 0 0 0 0 0 0 0 0 0 0 0 0 0 0 0 0 0 0 0 0 0 0 0 0 0 0 0 0 0
0 0 0 0 0 0 0 0 0 0 0 0 0 0 0 0 0 0 0 0 0 0 0 0 0 0 0 0 0 0 0 0 0 0 0 0 0 0 0 0 0 0 0
0 0 0 0 0 0 0 0 0 0 0 0 0 0 0 0 0 0 0 0 0 0 0 0 0 0 0 0 0 0 0 0 0 0 0 0 0 0 0 0 0 0 0
0 0 0 0 0 0 0 0 0 0 0 0 0 0 0 0 0 0 0 0 0 0 0 0 0 0 0 0 0 0 0 0 0 0 0 0 0 0 0 0 0 0 0
0 0 0 0 0 0 0 0 0 0 0 0 0 0 0 0 0 0 0 0 0 0 0 0 0 0 0 0 0 0 0 0 0 0 0 0 0 0 0 0 0 0 0
0 0 0 0 0 0 0 0 0 0 0 0 0 0 0 0 0 0 0 0 0 0 0 0 0 0 0 0 0 0 0 0 0 0 0 0 0 0 0 0 0 0 0
0 0 0 0 0 0 0 0 0 0 0 0 0 0 0 0 0 0 0 0 0 0 0 0 0 0 0 0 0 0 0 0 0 0 0 0 0 0 0 0 0 0 0
0 0 0 0 0 0 0 0 0 0 0 0 0 0 0 0 0 0 0 0 0 0 0 0 0 0 0 0 0 0 0 0 0 0 0 0 0 0 0 0 0 0 0
0 0 0 0 0 0 0 0 0 0 0 0 0 0 0 0 0 0 0 0 0 0 0 0 0 0 0 0 0 0 0 0 0 0 0 0 0 0 0 0 0 0 0
Wind_Speed
11 11 11 10 9 8 6 6 6 6 6 5 5 5 6 6 6 7 10 11 11 12 11 10 11 10 10 12 13 12 12 11 9 9 11 13 16 17 14 14 14 16 17
11 11 11 11 11 9 7 6 5 5 5 4 4 3 4 4 6 6 8 11 11 12 10 12 11 10 10 13 13 12 10 9 8 7 8 9 10 11 12 12 13 14 13
10 11 11 11 11 10 8 5 5 4 4 4 3 3 3 3 4 6 6 8 10 11 12 13 12 11 11 11 12 12 13 11 10 9 9 8 8 7 6 10 10 11 11
9 9 10 11 10 9 7 7 6 5 4 4 4 5 4 4 4 4 5 6 8 10 11 12 12 12 11 12 12 12 11 12 11 10 11 13 10 10 9 7 9 11 12
8 9 9 9 9 8 7 7 7 6 4 3 3 4 4 5 4 5 6 6 6 7 9 10 11 11 11 13 14 13 13 11 12 11 10 12 12 14 12 14 13 12 11
8 9 8 8 8 7 7 6 7 6 4 2 1 2 4 5 6 6 6 5 5 5 7 8 9 10 10 12 12 13 15 14 15 13 12 12 11 11 12 15 15 15 13
9 9 8 8 7 7 7 6 7 6 5 3 2 2 3 5 6 6 6 6 5 5 6 6 8 9 10 11 12 12 13 15 16 15 13 13 13 13 13 14 15 17 14
8 8 7 7 7 6 6 6 6 5 5 4 3 3 3 3 3 5 6 6 6 7 8 8 9 10 11 11 11 11 13 13 15 16 17 13 13 13 13 14 14 16 16
8 8 7 6 6 5 5 5 4 4 4 4 4 3 4 4 5 6 7 6 7 7 9 10 10 11 12 12 12 11 14 14 14 15 16 15 13 13 13 13 13 14 16
8 8 7 6 5 4 4 4 4 4 4 4 4 3 5 5 6 7 8 9 9 9 10 11 12 12 13 13 13 13 13 15 14 13 15 16 13 13 13 13 13 14 15
9 7 6 5 4 4 3 3 3 3 3 4 5 5 6 6 7 7 9 9 10 11 11 12 13 13 14 14 13 14 15 16 16 15 16 18 17 14 13 13 13 14 14
7 7 6 5 3 3 3 3 3 3 3 4 5 6 7 7 8 9 10 10 11 11 12 13 14 14 14 14 15 16 16 16 17 17 17 18 14 17 15 13 15 14 15
8 6 5 3 2 2 2 2 3 3 4 5 6 7 8 9 10 11 11 12 12 13 13 13 14 14 14 15 15 16 16 17 17 17 17 18 17 18 15 15 15 13 13
7 5 4 2 1 1 2 3 4 4 5 6 7 9 9 10 11 12 12 13 13 14 14 15 15 15 14 14 15 15 16 16 17 17 17 17 17 17 17 15 16 14 14
6 4 2 1 1 2 3 4 4 5 6 8 9 9 10 11 11 12 13 14 14 14 15 15 16 15 13 12 12 13 15 16 17 17 17 17 20 23 20 15 14 13 13
5 3 1 0 2 3 4 5 6 6 7 9 10 10 11 11 12 13 14 15 15 15 15 16 16 16 13 18 22 20 17 16 16 16 16 17 19 22 26 28 27 23 16
4 3 1 1 2 4 5 6 7 8 8 9 10 11 11 12 13 14 15 15 16 16 16 16 16 17 17 22 24 24 19 18 17 16 15 14 14 19 15 20 25 25 27
4 2 1 2 3 4 5 7 8 8 9 10 11 11 11 13 14 15 16 16 15 15 15 16 17 17 18 22 24 24 19 17 17 16 16 16 16 15 16 13 14 16 17
2 1 2 3 4 5 6 7 8 9 9 10 11 12 12 14 15 16 16 16 15 16 16 16 17 18 18 21 22 23 15 14 16 15 15 16 16 20 24 17 15 16 14
2 2 2 4 5 6 7 8 10 10 11 11 12 13 13 14 15 16 17 15 15 15 15 16 16 17 18 20 22 23 12 13 13 13 13 18 20 22 23 16 14 15 14
2 2 4 5 6 7 7 9 11 11 12 12 13 13 14 14 15 15 15 15 15 15 15 16 15 16 17 19 21 21 13 12 13 12 11 11 20 23 24 22 15 17 17
3 3 5 6 7 7 8 10 12 12 12 13 14 14 15 13 12 15 15 15 15 15 15 15 15 12 13 15 17 22 21 20 15 13 11 12 21 24 25 20 19 23 20
4 4 6 8 9 9 9 12 12 12 13 14 14 15 15 14 13 14 15 14 13 12 12 12 13 12 11 13 20 22 22 23 16 13 19 23 25 23 17 18 21 17 10
5 5 7 9 11 11 11 12 13 12 13 14 15 14 14 14 14 11 11 11 11 12 12 12 13 13 12 12 11 11 13 16 15 13 16 22 22 17 16 16 12 8 8
6 6 8 10 12 12 13 13 13 13 14 14 14 14 13 13 13 12 11 13 12 13 15 13 13 13 13 15 22 19 13 12 13 14 11 9 8 8 8 8 8 7 7
7 8 10 11 13 13 14 13 13 12 13 13 13 11 11 11 11 12 13 14 17 22 24 24 22 17 20 25 26 26 25 25 23 17 10 9 8 8 8 8 7 7 7
Wind_Direction
61 59 63 72 83 90 105 126 153 171 179 184 195 208 223 228 232 237 241 241 241 240 239 244 249 245 242 246 250 251 254 254 257 267 270 261 252 248 246 245 246 245 242
74 66 68 71 74 80 87 102 126 153 174 183 192 212 232 241 246 244 246 245 245 245 243 245 248 247 247 250 253 251 253 255 243 248 277 281 272 244 236 241 243 246 245
83 77 73 72 73 72 74 84 101 130 162 178 185 190 219 241 240 244 247 248 248 247 245 247 250 251 249 251 252 248 245 250 247 231 245 268 274 301 243 232 238 240 241
95 87 82 76 72 72 76 84 93 107 132 169 198 215 233 251 265 273 268 268 259 255 252 252 253 254 251 251 252 249 246 247 252 245 233 244 266 277 284 250 237 242 246
107 99 90 86 81 79 80 84 90 92 107 152 202 238 256 275 289 291 284 282 272 262 258 256 256 255 254 254 255 254 249 244 246 248 246 243 247 249 257 271 269 259 247
123 113 107 103 94 88 84 85 88 85 88 107 163 256 285 295 299 300 300 296 287 275 265 260 258 257 256 257 256 255 253 249 248 248 248 247 245 243 246 259 266 267 264
142 133 127 118 106 95 87 85 83 77 70 67 49 348 313 306 303 308 307 304 298 292 288 274 265 263 259 259 259 257 255 253 251 249 248 247 247 251 255 263 270 272 271
153 144 135 127 115 102 91 83 75 68 56 45 31 7 341 315 310 308 303 299 296 296 298 289 277 273 271 267 262 260 257 255 254 253 252 251 250 249 248 254 265 273 273
161 152 144 135 122 105 86 71 64 57 43 28 11 357 342 323 313 307 301 296 294 297 295 291 285 280 277 273 270 263 262 260 258 257 256 254 253 252 252 252 251 258 272
162 156 147 133 116 97 85 69 53 42 27 10 360 333 327 322 313 306 304 302 301 299 295 292 289 285 282 278 272 269 268 268 265 263 262 260 257 255 252 250 250 248 256
162 157 145 129 115 100 83 61 42 24 10 355 338 326 325 320 312 305 304 304 301 299 295 294 291 288 286 284 278 273 272 271 270 267 265 263 262 260 257 253 251 249 249
154 146 138 134 123 97 65 35 16 2 352 340 327 323 320 316 311 309 308 305 301 299 297 294 291 289 287 285 282 280 277 275 274 273 270 268 266 262 260 257 255 253 250
149 144 141 135 111 68 23 359 348 341 335 326 318 316 314 313 311 309 308 305 301 298 296 293 290 288 287 285 283 282 280 278 276 275 273 271 269 266 263 260 258 257 255
151 145 138 124 78 8 343 334 333 330 324 316 312 311 311 310 307 305 303 301 299 296 295 293 290 288 285 282 281 281 280 278 276 274 271 269 267 265 265 264 262 260 258
153 149 144 111 356 338 329 327 321 319 315 309 308 307 307 306 303 301 300 300 298 295 293 291 289 287 284 278 276 275 274 274 274 272 270 267 265 264 264 261 259 256 255
164 161 167 270 320 326 322 315 312 313 308 303 302 304 304 303 302 301 301 299 297 295 294 292 291 289 285 285 286 285 282 278 275 274 272 271 269 268 268 267 265 259 254
169 177 206 291 309 313 309 307 308 307 302 298 299 302 302 301 301 302 300 299 298 297 295 293 292 290 289 290 290 289 288 285 282 278 276 274 271 272 268 270 271 272 270
175 190 240 281 296 302 302 302 302 299 296 296 298 300 301 301 302 302 301 301 300 298 296 295 294 293 292 294 294 295 292 286 283 280 277 277 276 273 272 266 264 264 265
176 206 259 278 288 296 301 301 296 296 294 294 298 303 303 302 302 302 302 303 301 299 297 297 296 295 295 295 297 297 293 286 285 282 279 278 278 277 279 275 268 267 265
179 223 261 276 285 297 303 297 296 298 298 302 303 303 302 301 300 301 302 301 300 298 298 295 295 294 294 296 298 298 292 290 289 285 280 278 277 279 280 276 273 272 272
206 249 275 282 290 300 299 293 295 298 303 303 300 299 299 299 300 300 299 300 299 298 297 296 295 294 293 295 296 296 294 290 290 288 285 280 281 282 282 281 276 273 276
239 270 282 289 296 297 293 292 296 302 304 302 299 298 299 300 298 298 299 300 300 299 299 298 299 297 296 295 296 297 297 297 294 291 288 285 287 287 287 285 281 282 284
260 273 283 291 295 297 295 293 299 304 303 301 299 299 300 299 298 298 299 300 299 297 298 298 298 298 297 297 298 299 300 298 295 288 288 291 293 294 291 287 288 288 281
268 278 284 289 296 301 299 294 298 301 300 299 299 300 300 299 299 296 294 294 295 296 296 296 297 298 299 299 300 300 300 298 295 291 290 291 289 285 284 286 285 276 269
276 279 282 287 292 298 299 299 301 302 299 298 298 298 297 297 298 295 292 292 288 287 292 294 295 297 298 298 302 304 302 300 296 300 293 288 286 284 283 282 279 274 272
280 282 284 287 292 298 299 301 302 301 298 296 298 298 298 297 296 297 296 285 283 290 291 289 290 291 291 299 303 306 307 307 306 305 296 294 292 293 292 291 286 279 275